| time (UTC) | temp F | wind direction | speed knots | gust knots | rain 1hr in | rain 24hr in | rain mn in | humidity % | barometer mb |
| 20260902234517 | 81 | 40 | 0.0 | 3.5 | 0.00 | 0.00 | 0.00 | 81 | 1007.8 |
| 20260902233013 | 81 | 300 | 0.0 | 2.6 | 0.00 | 0.00 | 0.00 | 81 | 1007.7 |
| 20260902231604 | 81 | 316 | 0.0 | 2.6 | 0.00 | 0.00 | 0.00 | 82 | 1007.7 |
| 20260902230054 | 81 | 42 | 0.0 | 2.6 | 0.00 | 0.00 | 0.00 | 82 | 1007.6 |
| 20260902224544 | 81 | 9 | 0.9 | 4.3 | 0.00 | 0.00 | 0.00 | 82 | 1007.7 |
| 20260902223035 | 81 | 5 | 0.0 | 2.6 | 0.00 | 0.00 | 0.00 | 82 | 1007.7 |
| 20260902221520 | 81 | 281 | 0.0 | 1.7 | 0.00 | 0.00 | 0.00 | 82 | 1007.8 |
| 20260902220015 | 81 | 277 | 0.0 | 1.7 | 0.00 | 0.00 | 0.00 | 81 | 1007.8 |
| 20260902214559 | 81 | 276 | 1.7 | 3.5 | 0.00 | 0.00 | 0.00 | 81 | 1007.8 |
| 20260902213058 | 82 | 311 | 0.0 | 2.6 | 0.00 | 0.00 | 0.00 | 81 | 1007.9 |
| 20260902211545 | 82 | 242 | 0.0 | 2.6 | 0.00 | 0.00 | 0.00 | 80 | 1008.0 |
| 20260902210035 | 82 | 160 | 0.0 | 3.5 | 0.00 | 0.00 | 0.00 | 80 | 1008.0 |
| 20260902204516 | 82 | 23 | 0.0 | 3.5 | 0.00 | 0.00 | 0.00 | 80 | 1007.9 |
| 20260902203017 | 82 | 95 | 0.9 | 2.6 | 0.00 | 0.00 | 0.00 | 80 | 1007.9 |
| 20260902201558 | 82 | 309 | 1.7 | 4.3 | 0.00 | 0.00 | 0.00 | 80 | 1007.8 |
| 20260902200112 | 82 | 55 | 1.7 | 4.3 | 0.00 | 0.00 | 0.00 | 80 | 1007.8 |
| 20260902194542 | 82 | 274 | 0.9 | 5.2 | 0.00 | 0.00 | 0.00 | 81 | 1007.9 |
| 20260902193040 | 82 | 271 | 1.7 | 4.3 | 0.00 | 0.00 | 0.00 | 81 | 1007.8 |
| 20260902191534 | 82 | 275 | 1.7 | 4.3 | 0.00 | 0.00 | 0.00 | 81 | 1007.7 |
| 20260902190024 | 82 | 324 | 0.0 | 3.5 | 0.00 | 0.00 | 0.00 | 80 | 1007.9 |
| 20260902184504 | 82 | 222 | 0.0 | 2.6 | 0.00 | 0.00 | 0.00 | 80 | 1008.0 |
| 20260902183010 | 82 | 297 | 0.9 | 5.2 | 0.00 | 0.00 | 0.00 | 80 | 1008.0 |
| 20260902181604 | 82 | 265 | 1.7 | 5.2 | 0.00 | 0.00 | 0.00 | 80 | 1007.8 |
| 20260902174545 | 82 | 267 | 1.7 | 5.2 | 0.00 | 0.00 | 0.00 | 78 | 1007.7 |
| 20260902173028 | 82 | 5 | 1.7 | 5.2 | 0.00 | 0.00 | 0.00 | 77 | 1007.7 |
| 20260902171527 | 83 | 277 | 1.7 | 4.3 | 0.00 | 0.00 | 0.00 | 77 | 1007.8 |
| 20260902170011 | 83 | 279 | 2.6 | 6.1 | 0.00 | 0.00 | 0.00 | 78 | 1007.7 |
| 20260902164509 | 83 | 273 | 2.6 | 7.0 | 0.00 | 0.00 | 0.00 | 79 | 1007.6 |
| 20260902163058 | 83 | 269 | 1.7 | 5.2 | 0.00 | 0.00 | 0.00 | 78 | 1007.5 |
| 20260902161554 | 83 | 287 | 1.7 | 5.2 | 0.00 | 0.00 | 0.00 | 78 | 1007.6 |
| 20260902160032 | 83 | 267 | 1.7 | 7.0 | 0.00 | 0.00 | 0.00 | 76 | 1007.5 |
| 20260902154532 | 84 | 270 | 0.9 | 6.1 | 0.00 | 0.00 | 0.00 | 75 | 1007.4 |
| 20260902153014 | 84 | 259 | 1.7 | 6.1 | 0.00 | 0.00 | 0.00 | 73 | 1007.5 |
| 20260902151513 | 85 | 121 | 3.5 | 6.1 | 0.00 | 0.00 | 0.00 | 71 | 1007.6 |
| 20260902150001 | 85 | 313 | 2.6 | 9.6 | 0.00 | 0.00 | 0.00 | 70 | 1007.6 |
| 20260902144559 | 85 | 161 | 2.6 | 7.0 | 0.00 | 0.00 | 0.00 | 70 | 1007.5 |
| 20260902143106 | 85 | 350 | 2.6 | 7.0 | 0.00 | 0.00 | 0.00 | 69 | 1007.6 |
| 20260902141558 | 85 | 311 | 2.6 | 7.8 | 0.00 | 0.00 | 0.00 | 70 | 1007.7 |
| 20260902140058 | 86 | 292 | 3.5 | 7.8 | 0.00 | 0.00 | 0.00 | 68 | 1007.7 |
| 20260902134557 | 86 | 300 | 3.5 | 7.8 | 0.00 | 0.00 | 0.00 | 69 | 1007.6 |
| 20260902133057 | 86 | 84 | 3.5 | 6.1 | 0.00 | 0.00 | 0.00 | 68 | 1007.8 |
| 20260902131555 | 86 | 306 | 3.5 | 7.0 | 0.00 | 0.00 | 0.00 | 66 | 1007.7 |
| 20260902130038 | 87 | 288 | 3.5 | 7.8 | 0.00 | 0.00 | 0.00 | 65 | 1007.9 |
| 20260902124537 | 87 | 270 | 2.6 | 7.0 | 0.00 | 0.00 | 0.00 | 64 | 1008.0 |
| 20260902123020 | 87 | 226 | 3.5 | 7.0 | 0.00 | 0.00 | 0.00 | 65 | 1008.0 |
| 20260902121517 | 87 | 28 | 2.6 | 7.0 | 0.00 | 0.00 | 0.00 | 65 | 1008.0 |
| 20260902120059 | 87 | 51 | 3.5 | 7.8 | 0.00 | 0.00 | 0.00 | 63 | 1008.2 |
| 20260902114557 | 88 | 300 | 1.7 | 8.7 | 0.00 | 0.00 | 0.00 | 64 | 1008.3 |
| 20260902113044 | 88 | 292 | 2.6 | 9.6 | 0.00 | 0.00 | 0.00 | 65 | 1008.4 |
| 20260902111541 | 88 | 180 | 0.9 | 6.1 | 0.00 | 0.00 | 0.00 | 66 | 1008.5 |
| 20260902110018 | 88 | 42 | 2.6 | 6.1 | 0.00 | 0.00 | 0.00 | 65 | 1008.6 |
| 20260902104517 | 88 | 66 | 2.6 | 7.8 | 0.00 | 0.00 | 0.00 | 67 | 1008.6 |
| 20260902103059 | 87 | 269 | 3.5 | 7.0 | 0.00 | 0.00 | 0.00 | 66 | 1008.6 |
| 20260902101605 | 87 | 351 | 3.5 | 7.0 | 0.00 | 0.00 | 0.00 | 67 | 1008.5 |
| 20260902100044 | 87 | 285 | 2.6 | 5.2 | 0.00 | 0.00 | 0.00 | 69 | 1008.6 |
| 20260902094538 | 86 | 55 | 2.6 | 6.1 | 0.00 | 0.00 | 0.00 | 70 | 1008.8 |
| 20260902093016 | 86 | 296 | 2.6 | 6.1 | 0.00 | 0.00 | 0.00 | 71 | 1008.8 |
| 20260902091512 | 86 | 107 | 1.7 | 7.8 | 0.00 | 0.00 | 0.00 | 72 | 1008.9 |
| 20260902090054 | 86 | 142 | 1.7 | 6.1 | 0.00 | 0.00 | 0.00 | 72 | 1009.0 |
| 20260902084601 | 86 | 72 | 2.6 | 6.1 | 0.00 | 0.00 | 0.00 | 72 | 1009.2 |
| 20260902083037 | 86 | 5 | 1.7 | 5.2 | 0.00 | 0.00 | 0.00 | 71 | 1009.3 |
| 20260902081535 | 86 | 267 | 2.6 | 6.1 | 0.00 | 0.00 | 0.00 | 71 | 1009.4 |
| 20260902080017 | 86 | 288 | 1.7 | 5.2 | 0.00 | 0.00 | 0.00 | 71 | 1009.5 |
| 20260902074516 | 86 | 48 | 0.9 | 5.2 | 0.00 | 0.00 | 0.00 | 72 | 1009.4 |
| 20260902073059 | 86 | 215 | 0.9 | 3.5 | 0.00 | 0.00 | 0.00 | 71 | 1009.6 |
| 20260902071600 | 86 | 293 | 1.7 | 5.2 | 0.00 | 0.00 | 0.00 | 72 | 1009.6 |
| 20260902070038 | 86 | 355 | 0.9 | 3.5 | 0.00 | 0.00 | 0.00 | 74 | 1009.7 |
| 20260902064538 | 84 | 355 | 0.9 | 2.6 | 0.00 | 0.00 | 0.00 | 75 | 1009.6 |
| 20260902063012 | 84 | 11 | 0.9 | 3.5 | 0.00 | 0.00 | 0.00 | 77 | 1009.6 |
| 20260902061508 | 83 | 275 | 0.9 | 4.3 | 0.00 | 0.00 | 0.00 | 79 | 1009.6 |
| 20260902060046 | 81 | 268 | 0.0 | 3.5 | 0.00 | 0.00 | 0.00 | 82 | 1009.6 |
| 20260902054549 | 81 | 331 | 0.9 | 3.5 | 0.00 | 0.00 | 0.00 | 82 | 1009.6 |
| 20260902053025 | 80 | 26 | 0.0 | 3.5 | 0.00 | 0.00 | 0.00 | 83 | 1009.6 |
| 20260902051521 | 79 | 27 | 0.0 | 1.7 | 0.00 | 0.00 | 0.00 | 83 | 1009.6 |
| 20260902050003 | 78 | 27 | 0.0 | 1.7 | 0.00 | 0.00 | 0.00 | 83 | 1009.7 |
| 20260902044501 | 78 | 27 | 0.0 | 0.0 | 0.00 | 0.00 | 0.00 | 83 | 1009.6 |
| 20260902043041 | 78 | 27 | 0.0 | 0.0 | 0.00 | 0.00 | 0.00 | 83 | 1009.6 |
| 20260902041542 | 77 | 27 | 0.0 | 0.0 | 0.00 | 0.00 | 0.00 | 83 | 1009.5 |
| 20260902040023 | 77 | 27 | 0.0 | 0.0 | 0.00 | 0.00 | 0.00 | 83 | 1009.4 |
| 20260902034524 | 77 | 27 | 0.0 | 0.0 | 0.00 | 0.00 | 0.00 | 83 | 1009.3 |
| 20260902033002 | 78 | 27 | 0.0 | 0.0 | 0.00 | 0.00 | 0.00 | 83 | 1009.2 |
| 20260902031603 | 78 | 27 | 0.0 | 0.0 | 0.00 | 0.00 | 0.00 | 83 | 1009.2 |
| 20260902030041 | 78 | 27 | 0.0 | 0.0 | 0.00 | 0.00 | 0.00 | 83 | 1009.2 |
| 20260902024538 | 78 | 27 | 0.0 | 0.0 | 0.00 | 0.00 | 0.00 | 83 | 1009.2 |
| 20260902023022 | 78 | 27 | 0.0 | 0.0 | 0.00 | 0.00 | 0.00 | 82 | 1009.1 |
| 20260902021518 | 78 | 27 | 0.0 | 0.9 | 0.00 | 0.00 | 0.00 | 82 | 1009.1 |
| 20260902020105 | 78 | 27 | 0.0 | 0.9 | 0.00 | 0.00 | 0.00 | 82 | 1009.0 |
| 20260902014600 | 78 | 27 | 0.0 | 0.0 | 0.00 | 0.00 | 0.00 | 83 | 1008.9 |
| 20260902013042 | 78 | 27 | 0.0 | 2.6 | 0.00 | 0.00 | 0.00 | 82 | 1008.8 |
| 20260902011548 | 78 | 27 | 0.0 | 1.7 | 0.00 | 0.00 | 0.00 | 82 | 1008.8 |
| 20260902010028 | 78 | 27 | 0.0 | 1.7 | 0.00 | 0.00 | 0.00 | 82 | 1008.8 |
| 20260902004526 | 78 | 27 | 0.0 | 3.5 | 0.00 | 0.00 | 0.00 | 82 | 1008.8 |
| 20260902003025 | 79 | 25 | 0.0 | 2.6 | 0.00 | 0.00 | 0.00 | 82 | 1008.8 |
| 20260902001525 | 79 | 24 | 0.0 | 1.7 | 0.00 | 0.00 | 0.00 | 82 | 1008.9 |
| 20260902000023 | 79 | 22 | 0.0 | 1.7 | 0.00 | 0.00 | 0.00 | 82 | 1008.9 |